This demonstration page uses our WeatherBlox Daily Observations layout. Learn more.

39.92423, -83.80882

Hourly Observations for May 20, 2017

Temp ( °F °C ) Dew Point ( °F °C ) Humidity (%) Winds ( mph kmh ) Pressure ( in mb ) Visibility ( mi km ) Precip ( " mm )
12:56 am 00:56 Cloudy 54 12.2 53 11.7 97 97 ENE 9 15 30.1 1019 9 14.48406 0 0
1:56 am 01:56 Cloudy 54 12.2 52 11.1 93 93 NE 6 9 30.1 1019 8 12.87472 0 0
2:56 am 02:56 Cloudy with Mist and Fog 53 11.7 51 10.6 93 93 ENE 9 15 30.08 1019 6 9.65604 0 0
3:20 am 03:20 Cloudy with Mist and Fog 54 12 52 11 94 94 ENE 8 13 30.09 1019 5 8.0467 0 0
3:56 am 03:56 Cloudy with Mist and Fog 53 11.7 52 11.1 96 96 ENE 5 7 30.09 1019 3 4.82802 0 0
4:14 am 04:14 Cloudy with Mist and Fog 54 12 52 11 94 94 ENE 9 15 30.09 1019 1.75 2.816345 0 0
4:38 am 04:38 Cloudy with Mist and Fog 52 11 52 11 100 100 NE 8 13 30.09 1019 2 3.21868 0 0
4:46 am 04:46 Cloudy with Mist and Fog 54 12 52 11 94 94 NE 6 9 30.09 1019 1.5 2.41401 0 0
5:21 am 05:21 Cloudy with Mist and Fog 54 12 52 11 94 94 ENE 8 13 30.09 1019 0.75 1.207005 0 0
5:49 am 05:49 Cloudy with Mist and Fog 54 12 52 11 94 94 NE 7 11 30.12 1020 1 1.60934 0 0
5:56 am 05:56 Cloudy with Mist and Fog 53 11.7 52 11.1 96 96 NE 8 13 30.12 1020 1 1.60934 0 0
6:10 am 06:10 Cloudy with Mist and Fog 54 12 52 11 94 94 NE 7 11 30.12 1020 0.75 1.207005 0 0
6:16 am 06:16 Cloudy with Fog 54 12 52 11 94 94 ENE 8 13 30.12 1020 0.25 0.402335 0 0
6:53 am 06:53 Cloudy with Mist and Fog 54 12 54 12 100 100 ENE 10 17 30.12 1020 0.75 1.207005 0 0
6:56 am 06:56 Cloudy with Mist and Fog 53 11.7 53 11.7 100 100 ENE 13 20 30.11 1020 1 1.60934 0 0
7:04 am 07:04 Cloudy with Mist and Fog 54 12 54 12 100 100 ENE 12 19 30.12 1020 2 3.21868 0 0
7:15 am 07:15 Cloudy with Mist and Fog 54 12 54 12 100 100 ENE 10 17 30.12 1020 4 6.43736 0 0
7:31 am 07:31 Cloudy with Mist and Fog 54 12 54 12 100 100 ENE 10 17 30.12 1020 4 6.43736 0 0
7:56 am 07:56 Cloudy with Mist and Fog 54 12.2 53 11.7 97 97 ENE 12 19 30.12 1020 5 8.0467 0 0
8:56 am 08:56 Cloudy 57 13.9 55 12.8 93 93 ENE 12 19 30.12 1020 7 11.26538 0 0
9:56 am 09:56 Cloudy 58 14.4 56 13.3 93 93 E 12 19 30.13 1020 8 12.87472 0 0
10:56 am 10:56 Cloudy 61 16.1 58 14.4 90 90 E 12 19 30.13 1020 7 11.26538 0 0
11:21 am 11:21 Cloudy with Nearby Thunderstorms 63 17 59 15 88 88 E 9 15 30.15 1021 8 12.87472 0 0
11:30 am 11:30 Cloudy with Nearby Thunderstorms 61 16 59 15 94 94 SSE 10 17 30.15 1021 7 11.26538 0 0
11:35 am 11:35 Cloudy with Nearby Thunderstorms 61 16 59 15 94 94 SE 8 13 30.15 1021 5 8.0467 0 0.0254
11:56 am 11:56 Cloudy with Nearby Thunderstorms 61 16.1 60 15.6 97 97 E 13 20 30.13 1020 6 9.65604 0.01 0.254
12:05 pm 12:05 Cloudy 63 17 61 16 94 94 E 13 20 30.12 1020 7 11.26538 0 0.0254
12:56 pm 12:56 Cloudy 64 17.8 62 16.7 93 93 E 12 19 30.13 1020 9 14.48406 0 0.0254
1:56 pm 13:56 Cloudy 67 19.4 64 17.8 91 91 ESE 13 20 30.11 1020 10 16.0934 0 0
2:47 pm 14:47 Cloudy with Light Rain 70 21 64 18 83 83 SE 8 13 30.09 1019 10 16.0934 0 0.0254
2:56 pm 14:56 Cloudy 69 20.6 65 18.3 87 87 ESE 9 15 30.11 1020 10 16.0934 0 0.0254
3:56 pm 15:56 Mostly Cloudy 71 21.7 67 19.4 87 87 E 9 15 30.07 1018 9 14.48406 0 0
4:08 pm 16:08 Mostly Cloudy 73 23 66 19 78 78 E 9 15 30.03 1017 9 14.48406 0 0
4:19 pm 16:19 Cloudy 73 23 66 19 78 78 E 10 17 30.03 1017 9 14.48406 0 0
4:28 pm 16:28 Mostly Cloudy 73 23 66 19 78 78 ESE 7 11 30.03 1017 9 14.48406 0 0
4:41 pm 16:41 Cloudy 73 23 68 20 83 83 E 8 13 30.03 1017 10 16.0934 0 0
4:53 pm 16:53 Mostly Cloudy 75 24 68 20 78 78 ESE 9 15 30.03 1017 10 16.0934 0 0
4:56 pm 16:56 Partly Cloudy 75 23.9 69 20.6 82 82 E 10 17 30.06 1018 10 16.0934 0 0
5:15 pm 17:15 Mostly Cloudy 73 23 68 20 83 83 E 8 13 30.03 1017 10 16.0934 0 0
5:25 pm 17:25 Partly Cloudy 75 24 68 20 78 78 ESE 9 15 30.03 1017 10 16.0934 0 0
5:37 pm 17:37 Mostly Cloudy 75 24 68 20 78 78 E 10 17 30.03 1017 10 16.0934 0 0
5:56 pm 17:56 Mostly Cloudy 75 23.9 69 20.6 82 82 ESE 12 19 30.04 1017 10 16.0934 0 0
6:18 pm 18:18 Mostly Sunny 75 24 70 21 83 83 E 9 15 30 1016 10 16.0934 0 0
6:56 pm 18:56 Sunny 74 23.3 68 20 82 82 E 14 22 30.02 1017 10 16.0934 0 0
7:56 pm 19:56 Sunny 73 22.8 68 20 84 84 ESE 13 20 30.03 1017 10 16.0934 0 0
8:56 pm 20:56 Mostly Clear 71 21.7 68 20 90 90 ESE 14 22 30.01 1016 9 14.48406 0 0
9:56 pm 21:56 Partly Cloudy 70 21.1 67 19.4 90 90 ESE 10 17 30.02 1017 9 14.48406 0 0
10:53 pm 22:53 Partly Cloudy with Nearby Thunderstorms 70 21 68 20 94 94 ESE 9 15 30 1016 6 9.65604 0 0
10:56 pm 22:56 Partly Cloudy with Thunderstorms 70 21.1 68 20 93 93 SSE 7 11 30.02 1017 6 9.65604 0 0
11:01 pm 23:01 Mostly Cloudy with Heavy Rain 70 21 68 20 94 94 SSW 14 22 30.03 1017 2.5 4.02335 0.1 2.54
11:08 pm 23:08 Mostly Cloudy with Heavy Thunderstorms 70 21 63 17 78 78 Calm 30 1016 2 3.21868 0.22 5.588
11:15 pm 23:15 Mostly Cloudy with Light Thunderstorms 70 21 64 18 83 83 SE 13 20 30.03 1017 8 12.87472 0.23 5.842
11:44 pm 23:44 Mostly Cloudy with Light Rain 66 19 66 19 100 100 SE 14 22 30.03 1017 10 16.0934 0.24 6.096
11:56 pm 23:56 Mostly Cloudy with Light Rain 67 19.4 65 18.3 93 93 SSE 12 19 30.02 1017 10 16.0934 0.24 6.096

Powered by AerisWeather